STARLINK-1541, 46052

Orbit data source: Space-Track

STARLINK-1541, 46052 is a payload satellite owned by SpaceX/Seattle (US) in LEO that was launched on Fri, 07 Aug 2020 UTC via an FALCON 9 launch vehicle from the Air Force Eastern Test Range (AFETR). Payloads include a variety of satellites, spacecraft, and rockets equipped with specific instruments for various scientific and technological missions. These include communications satellites like Starlink; space stations such as the ISS; scientific satellites like the Hubble; Earth observation satellites from companies like Planet Labs, Umbra, and HawkEye 360; GPS; miniature CubeSats for education and research; and military/defense satellites.

Loading next visibility...
STARLINK-1541 details
Identifier
46052, 2020-055AB
Orbit
LEO
Last TLE update22 hours ago
Origin
Flag of USSpaceX/Seattle (US)
ManufacturerSpaceX/Seattle
MissionOperational Commercial Communications
Bus & MotorSTARLINK, Unknown motor
Mass260 kg wet, ~248 kg dry
Launch date (UTC)
2020-08-07 (4 years ago)
Launch vehicle
FALCON 9
Launch site
Air Force Eastern Test Range (AFETR)
Object type
Payload
Rocket body
Debris
Shape & HBRBox + 1 Pan, 8.86 m
Radar Cross Section13.562 m², Large (>1 m²)

Expand to show TLE details & history

TLE from 22 hours ago
0 STARLINK-1541
1 46052U 20055AB  24360.53542342  .00028739  00000-0  19407-2 0  9994
2 46052  53.0529 288.0554 0001464 103.9532 256.1620 15.06394786242327
Epoch: 2024-12-25T12:51Z
Definitive object data (Epoch: 2024-12-25T12:51:00.583Z)
Latitude-0.00001°
Longitude0.77519°
Altitude548.349 km
Speed7.589 km/s
True Right ascension19h 12m 13s
True Declination0° 00' 00"
Sunlit
Object was in daylight at TLE epoch
Visualization TLE readout
Latitude-46.47586°
Longitude-131.3426°
Altitude563.647 km
Speed7.579 km/s
Apparent Right ascension16h 59m 20s
Apparent Declination-86° 39' 03"
Sunlit
Object is in daylight
Visualization observer readout
Local Sidereal Time09:59:08
Azimuth175.732° S
Elevation-40.708°
Doppler factor1
Orbital elements
Apogee altitude548.512 km
Perigee altitude546.485 km
Semi-major axis6,925.636 km
Eccentricity0.0001464
Inclination53.0529°
RAAN288.0554°
Arg. of periapsis103.9532°
True anomaly256.14571°
Mean anomaly256.162°
Eccentric anomaly256.15386°
Mean motion3.76577 °/min
BSTAR0.0019407
Orbital period95.6 mins
Loading maneuver chart data...
Loading historical data...
Loading historical data...
Loading historical data...
Loading historical data...
Loading historical data...
Loading historical data...
Loading historical data...

STARLINK-1541 Visibility forecast

Observer location: undefined°, undefined

Span
Click to sort rows by Start time (UTC) header in descending order
Start Az.
Max El. time (UTC)
Max El. Az.
Max El.
End time (UTC)
End Az.
5 mins2024-12-26 20:50:55.352Z175.486° S2024-12-26 20:53:55.352Z119.061° SE21.232°2024-12-26 20:55:55.352Z84.264° E
6 mins2024-12-26 22:29:55.352Z254.734° W2024-12-26 22:32:55.352Z334.011° NNW37.144°2024-12-26 22:35:55.352Z38.002° NE
5 mins2024-12-27 03:32:55.352Z348.262° N2024-12-27 03:34:55.352Z38.753° NE25.987°2024-12-27 03:37:55.352Z88.569° E
6 mins2024-12-27 05:11:55.352Z289.321° WNW2024-12-27 05:13:55.352Z239.155° WSW35.954°2024-12-27 05:17:55.352Z152.32° SSE
|